Weather History for Burlington, VT

Change the Weather History Date:

Tuesday, October 16, 2012

  Actual Average Record
Temperature  
Mean Temperature 45 °F 48 °F  
Max Temperature 55 °F 57 °F 84 °F (1947)
Min Temperature 34 °F 39 °F 24 °F (1978)
Degree Days  
Heating Degree Days 20 17  
Month to date heating degree days 193 229  
Since 1 July heating degree days 340 446  
Cooling Degree Days 0 0  
Month to date cooling degree days 1 0  
Year to date cooling degree days 747 489  
Moisture  
Dew Point 34 °F    
Average Humidity 68    
Maximum Humidity 85    
Minimum Humidity 50    
Precipitation  
Precipitation T in 0.11 in 1.41 in (2002)
Month to date precipitation 2.48 1.94  
Year to date precipitation 28.84 29.65  
Snow  
Snow 0.00 in 0.00 in 0.10 in (1973)
Month to date snowfall T 0.0  
Since 1 July snowfall T T  
Since 1 September snowfall T T  
Snow Depth 0.00 in    
Sea Level Pressure  
Sea Level Pressure 29.75 in    
Wind  
Wind Speed 9 mph (WNW)    
Max Wind Speed 20 mph    
Max Gust Speed 28 mph    
Visibility 10 miles    
Events Rain    
T = Trace of Precipitation, MM = Missing Value Source: NWS Daily Summary

Daily Weather History Graph

Daily Weather History Graph

Search for Another Location

Airport:

Trip Planner

Search our weather history database for the weather conditions in past years. The results will help you decide how hot, cold, wet, or windy it might be!

Date:

Astronomy

Oct. 16, 2012 Rise Set
Actual Time 7:09 AM EDT 6:05 PM EDT
Civil Twilight 6:40 AM EDT 6:35 PM EDT
Nautical Twilight 6:06 AM EDT 7:08 PM EDT
Astronomical Twilight 5:32 AM EDT 7:42 PM EDT
Moon 8:34 AM EDT (10/16) 6:42 PM EDT (10/16)
Length of Visible Light 11h 54m
Length of Day
10h 56m
New Moon, 2% of the Moon is Illuminated
Oct 16
New Moon
Oct 21
First Quarter
Oct 29
Full
Nov 6
Last Quarter
Nov 13
New

Hourly Weather History & Observations

Time (EDT) Temp. Windchill Dew Point Humidity Pressure Visibility Wind Dir Wind Speed Gust Speed Precip Events Conditions
12:54 AM 54.0 °F - 46.0 °F 75% 29.61 in 10.0 mi WNW 6.9 mph - N/A   Overcast
1:54 AM 54.0 °F - 42.1 °F 64% 29.62 in 10.0 mi WNW 10.4 mph - N/A   Overcast
2:54 AM 52.0 °F - 39.0 °F 61% 29.63 in 10.0 mi West 9.2 mph 20.7 mph N/A   Overcast
3:54 AM 51.1 °F - 35.1 °F 54% 29.63 in 10.0 mi West 10.4 mph - N/A   Overcast
4:54 AM 48.0 °F - 37.0 °F 66% 29.65 in 10.0 mi West 10.4 mph - N/A   Overcast
5:54 AM 46.9 °F - 34.0 °F 61% 29.66 in 10.0 mi WNW 11.5 mph - N/A   Scattered Clouds
6:44 AM 44.6 °F 38.1 °F 35.6 °F 71% 29.70 in 10.0 mi NW 13.8 mph - N/A   Mostly Cloudy
6:54 AM 45.0 °F 38.2 °F 34.0 °F 65% 29.70 in 10.0 mi WNW 15.0 mph 25.3 mph N/A   Mostly Cloudy
7:54 AM 42.8 °F 37.5 °F 33.8 °F 70% 29.72 in 10.0 mi WNW 9.2 mph - N/A   Mostly Cloudy
8:23 AM 42.8 °F 37.5 °F 33.8 °F 70% 29.72 in 10.0 mi WNW 9.2 mph - N/A   Mostly Cloudy
8:54 AM 43.0 °F 36.8 °F 34.0 °F 71% 29.74 in 10.0 mi NW 11.5 mph 20.7 mph 0.00 in Rain Light Rain
9:54 AM 43.0 °F 36.0 °F 32.0 °F 65% 29.76 in 10.0 mi NW 13.8 mph - 0.00 in   Overcast
10:16 AM 42.8 °F 36.6 °F 30.2 °F 61% 29.76 in 10.0 mi WNW 11.5 mph - N/A   Overcast
10:54 AM 44.1 °F 37.7 °F 32.0 °F 63% 29.77 in 10.0 mi NW 12.7 mph 18.4 mph N/A   Overcast
11:54 AM 45.0 °F 40.6 °F 33.1 °F 63% 29.78 in 10.0 mi West 8.1 mph - N/A   Overcast
12:54 PM 45.0 °F 39.3 °F 33.1 °F 63% 29.78 in 10.0 mi West 11.5 mph 19.6 mph N/A   Overcast
1:22 PM 46.4 °F 41.1 °F 33.8 °F 62% 29.78 in 10.0 mi WNW 11.5 mph - N/A   Overcast
1:54 PM 46.9 °F - 34.0 °F 61% 29.78 in 10.0 mi NW 10.4 mph - N/A   Mostly Cloudy
2:54 PM 48.0 °F - 33.1 °F 56% 29.78 in 10.0 mi WNW 12.7 mph 21.9 mph N/A   Mostly Cloudy
3:54 PM 50.0 °F - 32.0 °F 50% 29.78 in 10.0 mi NW 13.8 mph 23.0 mph N/A   Mostly Cloudy
4:54 PM 48.9 °F - 33.1 °F 54% 29.80 in 10.0 mi WNW 10.4 mph 21.9 mph N/A   Mostly Cloudy
5:54 PM 46.9 °F - 33.1 °F 59% 29.81 in 10.0 mi NW 8.1 mph - N/A   Mostly Cloudy
6:54 PM 46.9 °F - 33.1 °F 59% 29.83 in 10.0 mi NW 9.2 mph - N/A   Mostly Cloudy
7:54 PM 45.0 °F 41.8 °F 33.1 °F 63% 29.85 in 10.0 mi NW 5.8 mph - N/A   Mostly Cloudy
8:54 PM 43.0 °F - 32.0 °F 65% 29.87 in 10.0 mi Calm Calm - N/A   Partly Cloudy
9:54 PM 44.1 °F 40.8 °F 32.0 °F 63% 29.88 in 10.0 mi NW 5.8 mph - N/A   Partly Cloudy
10:54 PM 37.9 °F 35.5 °F 33.1 °F 83% 29.89 in 10.0 mi NE 3.5 mph - N/A   Clear
11:54 PM 37.0 °F 34.5 °F 32.0 °F 82% 29.91 in 10.0 mi SW 3.5 mph - N/A   Clear